TIANWANG 1B (TW-1B)
1 40927U 15051C   19223.42954125  .00008637  00000-0  13048-3 0  9996
2 40927  97.1359 268.8142 0008513 171.6978 312.9578 15.54925542218362
TIANWANG 1A (TW-1A)
1 40928U 15051D   19223.40041520  .00002463  00000-0  61650-4 0  9995
2 40928  97.1435 253.5141 0009651 233.5059 252.0381 15.41000533217444
LAPAN A2
1 40931U 15052B   19222.97826815  .00000610  00000-0 -40926-5 0  9996
2 40931   6.0016  36.6656 0013077 187.3032 172.5954 14.76610407209152
LQSAT
1 40958U 15057A   19222.74987465 -.00000029  00000-0  31143-5 0  9999
2 40958  97.8955 290.5047 0019529  72.7675 287.5669 14.73085540206613
CHUBUSAT 2
1 41338U 16012B   19222.25633597 +.00000252 +00000-0 +12812-4 0  9992
2 41338 031.0024 170.7119 0013864 263.5703 096.3353 15.00165010190812
CHUBUSAT 3
1 41339U 16012C   19223.21763116  .00000246  00000-0  12293-4 0  9997
2 41339  31.0104 162.6261 0013737 280.4175  79.4913 15.00339881190958
OUFTI-1
1 41458U 16025C   19222.81452411 +.00001583 +00000-0 +84032-4 0  9996
2 41458 098.1014 312.3617 0166441 178.0151 182.1773 15.05895690180562
E-STAR-2
1 41459U 16025D   19223.50827279  .00001342  00000-0  72177-4 0  9992
2 41459  98.1035 312.7250 0168468 177.0835 183.1432 15.05542187180644
AAUSAT 4
1 41460U 16025E   19223.48296738  .00001494  00000-0  78302-4 0  9995
2 41460  98.0951 314.0694 0157985 169.3694 191.0955 15.07448573180776
NUSAT 1
1 41557U 16033B   19222.91833187  .00000865  00000-0  35041-4 0  9997
2 41557  97.4176 310.1105 0015466 108.1736 252.1189 15.27294553178217
BEESAT 4
1 41619U 16040W   19222.72790343 +.00000911 +00000-0 +41397-4 0  9992
2 41619 097.3639 283.9557 0011008 188.4904 171.6149 15.23213184161932
PRATHAM
1 41783U 16059A   19222.87794964 +.00000021 +00000-0 +13442-4 0  9995
2 41783 098.0636 281.2750 0032826 214.8333 145.0721 14.63003123153324
ALSAT 1N
1 41789U 16059G   19223.43627682  .00000035  00000-0  15641-4 0  9994
2 41789  98.0670 283.9336 0027951 202.1358 157.8642 14.64254270153513
NAYIF 1
1 42017U 17008BX  19222.76092794 +.00000985 +00000-0 +41572-4 0  9995
2 42017 097.3999 289.3016 0005876 359.0633 001.0593 15.25624096138017
MAX VALIER SAT
1 42778U 17036P   19222.71503262 +.00000616 +00000-0 +29889-4 0  9990
2 42778 097.3506 279.2036 0013505 044.7407 315.4916 15.22077435118307
